Weather History for KEDJ - February, 2014

Change the Weather History Date:

Wednesday, February 26, 2014

  Actual Average (KDAY) Record (KDAY)
Temperature  
Mean Temperature 14 °F 34 °F  
Max Temperature 19 °F 42 °F 72 °F (2000)
Min Temperature 8 °F 26 °F -8 °F (1963)
Degree Days  
Heating Degree Days 52 31  
Month to date heating degree days 891  
Since 1 July heating degree days 4214  
Cooling Degree Days 0 0  
Month to date cooling degree days 0  
Year to date cooling degree days 0  
Moisture  
Dew Point 5 °F    
Average Humidity 64    
Maximum Humidity 85    
Minimum Humidity 46    
Precipitation  
Precipitation 0.00 in 0.08 in 1.28 in (1957)
Month to date precipitation 2.07  
Year to date precipitation 4.78  
Snow  
Snow 0.00 in 0.20 in 3.50 in (1986)
Month to date snowfall 5.5  
Since 1 July snowfall 18.9  
Snow Depth -    
Sea Level Pressure  
Sea Level Pressure 29.96 in    
Wind  
Wind Speed 12 mph (West)    
Max Wind Speed 17 mph    
Max Gust Speed 23 mph    
Visibility 10 miles    
Events      
T = Trace of Precipitation, MM = Missing Value Source: NWS Daily Summary

Daily Weather History Graph

Daily Weather History Graph

Search for Another Location

Airport or City:

Trip Planner

Search our weather history database for the weather conditions in past years. The results will help you decide how hot, cold, wet, or windy it might be!

Date:

Astronomy

Feb. 26, 2014 Rise Set
Actual Time 7:13 AM EST 6:23 PM EST
Civil Twilight 6:45 AM EST 6:50 PM EST
Nautical Twilight 6:14 AM EST 7:22 PM EST
Astronomical Twilight 5:42 AM EST 7:54 PM EST
Moon 4:59 AM EST (2/26) 3:36 PM EST (2/26)
Length of Visible Light 12h 04m
Length of Day
11h 10m
Waning Crescent, 10% of the Moon is Illuminated
Feb 26
Waning Crescent
Mar 1
New
Mar 8
First Quarter
Mar 16
Full
Mar 23
Last Quarter

Hourly Weather History & Observations

Time (EST) Temp. Windchill Dew Point Humidity Pressure Visibility Wind Dir Wind Speed Gust Speed Precip Events Conditions
12:10 AM 19.4 °F 6.0 °F 10.4 °F 68% 30.00 in 10.0 mi WNW 13.8 mph 20.7 mph 0.00 in   Scattered Clouds
12:30 AM 19.4 °F 7.2 °F 10.4 °F 68% 30.00 in 10.0 mi West 11.5 mph 23.0 mph 0.00 in   Partly Cloudy
12:50 AM 19.4 °F 7.2 °F 12.2 °F 74% 30.00 in 10.0 mi WNW 11.5 mph 18.4 mph 0.00 in   Mostly Cloudy
1:10 AM 17.6 °F 3.2 °F 10.4 °F 73% 30.00 in 10.0 mi WNW 15.0 mph 19.6 mph 0.00 in   Overcast
1:30 AM 17.6 °F 4.3 °F 10.4 °F 73% 30.01 in 10.0 mi WNW 12.7 mph 18.4 mph 0.00 in   Mostly Cloudy
1:50 AM 17.6 °F 3.7 °F 8.6 °F 68% 30.01 in 10.0 mi West 13.8 mph - 0.00 in   Mostly Cloudy
2:10 AM 17.6 °F 3.7 °F 10.4 °F 73% 30.01 in 10.0 mi WNW 13.8 mph 20.7 mph 0.00 in   Mostly Cloudy
2:30 AM 15.8 °F 2.1 °F 10.4 °F 79% 30.01 in 9.0 mi NW 12.7 mph 23.0 mph 0.00 in   Mostly Cloudy
2:50 AM 15.8 °F 2.7 °F 8.6 °F 73% 30.01 in 10.0 mi NW 11.5 mph - 0.00 in   Overcast
3:10 AM 14.0 °F -0.8 °F 8.6 °F 79% 30.01 in 10.0 mi WNW 13.8 mph 21.9 mph 0.00 in   Mostly Cloudy
3:30 AM 14.0 °F -0.2 °F 5.0 °F 67% 30.02 in 10.0 mi WNW 12.7 mph 23.0 mph 0.00 in   Partly Cloudy
3:50 AM 14.0 °F -1.4 °F 8.6 °F 79% 30.01 in 10.0 mi WNW 15.0 mph 18.4 mph 0.00 in   Scattered Clouds
4:10 AM 14.0 °F -0.8 °F 6.8 °F 73% 30.02 in 10.0 mi NW 13.8 mph 21.9 mph 0.00 in   Mostly Cloudy
4:30 AM 14.0 °F 1.2 °F 6.8 °F 73% 30.03 in 10.0 mi WNW 10.4 mph 20.7 mph 0.00 in   Mostly Cloudy
4:50 AM 14.0 °F -0.8 °F 6.8 °F 73% 30.04 in 10.0 mi WNW 13.8 mph 21.9 mph 0.00 in   Mostly Cloudy
5:10 AM 12.2 °F -2.5 °F 5.0 °F 73% 30.04 in 10.0 mi WNW 12.7 mph 19.6 mph 0.00 in   Mostly Cloudy
5:30 AM 12.2 °F -3.7 °F 5.0 °F 73% 30.05 in 10.0 mi WNW 15.0 mph 18.4 mph 0.00 in   Mostly Cloudy
5:50 AM 12.2 °F -3.1 °F 5.0 °F 73% 30.06 in 10.0 mi WNW 13.8 mph 19.6 mph 0.00 in   Mostly Cloudy
6:10 AM 10.4 °F -5.4 °F 5.0 °F 79% 30.06 in 9.0 mi WNW 13.8 mph - 0.00 in   Mostly Cloudy
6:30 AM 10.4 °F -2.4 °F 5.0 °F 79% 30.06 in 10.0 mi WNW 9.2 mph 19.6 mph 0.00 in   Mostly Cloudy
6:50 AM 10.4 °F -2.4 °F 5.0 °F 79% 30.07 in 10.0 mi WNW 9.2 mph - 0.00 in   Overcast
7:10 AM 8.6 °F -3.7 °F 5.0 °F 85% 30.06 in 10.0 mi West 8.1 mph - 0.00 in   Scattered Clouds
7:30 AM 8.6 °F -3.7 °F 5.0 °F 85% 30.07 in 10.0 mi West 8.1 mph - 0.00 in   Clear
7:50 AM 10.4 °F -1.5 °F 5.0 °F 79% 30.08 in 10.0 mi West 8.1 mph - 0.00 in   Clear
8:10 AM 10.4 °F -3.3 °F 5.0 °F 79% 30.09 in 10.0 mi West 10.4 mph 16.1 mph 0.00 in   Clear
8:30 AM 10.4 °F -2.4 °F 5.0 °F 79% 30.10 in 10.0 mi West 9.2 mph 16.1 mph 0.00 in   Clear
8:50 AM 10.4 °F -4.8 °F 5.0 °F 79% 30.11 in 10.0 mi WNW 12.7 mph - 0.00 in   Partly Cloudy
9:10 AM 12.2 °F -0.2 °F 5.0 °F 73% 30.11 in 10.0 mi West 9.2 mph - 0.00 in   Partly Cloudy
9:30 AM 12.2 °F -1.8 °F 5.0 °F 73% 30.11 in 10.0 mi WNW 11.5 mph 16.1 mph 0.00 in   Scattered Clouds
9:50 AM 12.2 °F -1.0 °F 5.0 °F 73% 30.11 in 10.0 mi WNW 10.4 mph - 0.00 in   Mostly Cloudy
10:10 AM 12.2 °F -1.0 °F 5.0 °F 73% 30.10 in 7.0 mi WNW 10.4 mph 16.1 mph 0.00 in   Mostly Cloudy
10:30 AM 12.2 °F 0.7 °F 3.2 °F 67% 30.09 in 10.0 mi WNW 8.1 mph - 0.00 in   Mostly Cloudy
10:50 AM 14.0 °F 2.0 °F 3.2 °F 62% 30.08 in 10.0 mi NW 9.2 mph 16.1 mph 0.00 in   Mostly Cloudy
11:10 AM 14.0 °F 1.2 °F 3.2 °F 62% 30.07 in 7.0 mi WNW 10.4 mph - 0.00 in   Scattered Clouds
11:30 AM 14.0 °F 2.0 °F 3.2 °F 62% 30.07 in 9.0 mi West 9.2 mph - 0.00 in   Scattered Clouds
11:50 AM 14.0 °F 5.1 °F 3.2 °F 62% 30.07 in 5.0 mi WNW 5.8 mph - 0.00 in   Mostly Cloudy
12:10 PM 17.6 °F 5.7 °F 6.8 °F 63% 30.06 in 7.0 mi West 10.4 mph - 0.00 in   Mostly Cloudy
12:30 PM 15.8 °F 7.2 °F 1.4 °F 53% 30.04 in 10.0 mi WNW 5.8 mph - 0.00 in   Mostly Cloudy
12:50 PM 14.0 °F 3.9 °F 3.2 °F 62% 30.03 in 10.0 mi West 6.9 mph - 0.00 in   Scattered Clouds
1:10 PM 17.6 °F 5.0 °F 3.2 °F 53% 30.02 in 10.0 mi WNW 11.5 mph - 0.00 in   Scattered Clouds
1:30 PM 17.6 °F 6.4 °F 3.2 °F 53% 30.01 in 10.0 mi West 9.2 mph 18.4 mph 0.00 in   Mostly Cloudy
1:50 PM 17.6 °F 7.3 °F 3.2 °F 53% 29.99 in 10.0 mi West 8.1 mph - 0.00 in   Scattered Clouds
2:10 PM 19.4 °F 9.5 °F 3.2 °F 49% 29.97 in 10.0 mi West 8.1 mph - 0.00 in   Partly Cloudy
2:30 PM 19.4 °F 6.0 °F 3.2 °F 49% 29.96 in 10.0 mi SW 13.8 mph 19.6 mph 0.00 in   Partly Cloudy
2:50 PM 19.4 °F 8.6 °F 3.2 °F 49% 29.95 in 10.0 mi West 9.2 mph 18.4 mph 0.00 in   Partly Cloudy
3:10 PM 19.4 °F 6.6 °F 3.2 °F 49% 29.94 in 10.0 mi WSW 12.7 mph - 0.00 in   Clear
3:30 PM 19.4 °F 6.0 °F 1.4 °F 46% 29.93 in 10.0 mi WSW 13.8 mph 19.6 mph 0.00 in   Clear
3:50 PM 19.4 °F 6.0 °F 3.2 °F 49% 29.92 in 10.0 mi WSW 13.8 mph 19.6 mph 0.00 in   Clear
4:10 PM 19.4 °F 6.6 °F 1.4 °F 46% 29.91 in 10.0 mi WSW 12.7 mph - 0.00 in   Clear
4:30 PM 19.4 °F 5.5 °F 3.2 °F 49% 29.90 in 10.0 mi WSW 15.0 mph 18.4 mph 0.00 in   Clear
4:50 PM 19.4 °F 6.6 °F 3.2 °F 49% 29.89 in 10.0 mi WSW 12.7 mph 20.7 mph 0.00 in   Clear
5:10 PM 19.4 °F 6.0 °F 1.4 °F 46% 29.87 in 10.0 mi SW 13.8 mph 18.4 mph 0.00 in   Clear
5:30 PM 19.4 °F 6.0 °F 1.4 °F 46% 29.86 in 10.0 mi WSW 13.8 mph 20.7 mph 0.00 in   Clear
5:50 PM 19.4 °F 6.0 °F 3.2 °F 49% 29.85 in 10.0 mi WSW 13.8 mph 19.6 mph 0.00 in   Clear
6:10 PM 19.4 °F 5.5 °F 1.4 °F 46% 29.85 in 10.0 mi SW 15.0 mph - 0.00 in   Clear
6:30 PM 17.6 °F 5.7 °F 1.4 °F 49% 29.84 in 10.0 mi SW 10.4 mph - 0.00 in   Clear
6:50 PM 17.6 °F 6.4 °F 3.2 °F 53% 29.83 in 10.0 mi SW 9.2 mph - 0.00 in   Clear
7:10 PM 17.6 °F 6.4 °F 3.2 °F 53% 29.83 in 10.0 mi SW 9.2 mph - 0.00 in   Clear
7:30 PM 17.6 °F 6.4 °F 3.2 °F 53% 29.82 in 10.0 mi SW 9.2 mph - 0.00 in   Clear
7:50 PM 15.8 °F 3.4 °F 3.2 °F 58% 29.81 in 10.0 mi SW 10.4 mph - 0.00 in   Clear
8:10 PM 15.8 °F 2.1 °F 3.2 °F 58% 29.80 in 10.0 mi SW 12.7 mph - 0.00 in   Clear
8:30 PM 15.8 °F 3.4 °F 5.0 °F 62% 29.80 in 10.0 mi SW 10.4 mph 18.4 mph 0.00 in   Clear
8:50 PM 15.8 °F 2.7 °F 5.0 °F 62% 29.79 in 10.0 mi SW 11.5 mph - 0.00 in   Clear
9:10 PM 15.8 °F 2.7 °F 5.0 °F 62% 29.79 in 10.0 mi SW 11.5 mph - 0.00 in   Clear
9:30 PM 14.0 °F 1.2 °F 5.0 °F 67% 29.78 in 10.0 mi SW 10.4 mph - 0.00 in   Clear
9:50 PM 14.0 °F 0.5 °F 5.0 °F 67% 29.78 in 10.0 mi SW 11.5 mph - 0.00 in   Clear
10:10 PM 15.8 °F 2.1 °F 5.0 °F 62% 29.78 in 10.0 mi SW 12.7 mph - 0.00 in   Partly Cloudy
10:30 PM 15.8 °F 1.4 °F 6.8 °F 68% 29.76 in 10.0 mi SW 13.8 mph 18.4 mph 0.00 in   Partly Cloudy
10:50 PM 15.8 °F 1.4 °F 5.0 °F 62% 29.76 in 10.0 mi SW 13.8 mph 20.7 mph 0.00 in   Partly Cloudy
11:10 PM 15.8 °F 3.4 °F 5.0 °F 62% 29.75 in 10.0 mi SW 10.4 mph 19.6 mph 0.00 in   Clear
11:30 PM 15.8 °F -0.2 °F 5.0 °F 62% 29.74 in 10.0 mi SW 17.3 mph 21.9 mph 0.00 in   Clear
11:50 PM 15.8 °F 0.3 °F 5.0 °F 62% 29.74 in 10.0 mi SW 16.1 mph 21.9 mph 0.00 in   Clear